Time,TemperatureF,DewpointF,PressureIn,WindDirection,WindDirectionDegrees,WindSpeedMPH,WindSpeedGustMPH,Humidity,HourlyPrecipIn,Conditions,Clouds,dailyrainin,SolarRadiationWatts/m^2,SoftwareType,DateUTC
2013-02-21 00:00:00,63.7,61.6,30.08,ESE,110,0.0,0.0,93,0.00,CLR,,0.01,0.0,WeatherDisplay:10.37,2013-02-21 05:00:00,
2013-02-21 00:05:00,63.7,61.6,30.07,ESE,110,0.0,0.0,93,0.00,RA,,0.00,0.0,WeatherDisplay:10.37,2013-02-21 05:05:00,
2013-02-21 00:10:00,63.6,61.5,30.08,ESE,110,0.0,0.0,93,0.00,RA,,0.00,0.0,WeatherDisplay:10.37,2013-02-21 05:10:00,
2013-02-21 00:15:00,63.5,61.4,30.07,ESE,110,0.0,0.0,93,0.00,CLR,,0.00,0.0,WeatherDisplay:10.37,2013-02-21 05:15:00,
2013-02-21 00:20:00,63.4,61.3,30.07,ESE,110,0.0,0.0,93,0.00,CLR,,0.00,0.0,WeatherDisplay:10.37,2013-02-21 05:20:00,
2013-02-21 00:25:00,63.4,61.3,30.07,ESE,110,0.0,0.0,93,0.00,CLR,,0.00,0.0,WeatherDisplay:10.37,2013-02-21 05:25:00,
2013-02-21 00:30:00,63.4,61.3,30.07,ESE,110,0.0,0.0,93,0.00,CLR,,0.00,0.0,WeatherDisplay:10.37,2013-02-21 05:30:00,
2013-02-21 00:35:00,63.3,61.2,30.07,ESE,110,0.0,0.0,93,0.00,CLR,,0.00,0.0,WeatherDisplay:10.37,2013-02-21 05:35:00,
2013-02-21 00:40:00,63.3,61.2,30.07,ESE,110,0.0,0.0,93,0.00,CLR,,0.00,0.0,WeatherDisplay:10.37,2013-02-21 05:40:00,
2013-02-21 00:45:00,63.2,61.1,30.07,ESE,110,0.0,0.0,93,0.00,CLR,,0.00,0.0,WeatherDisplay:10.37,2013-02-21 05:45:00,
2013-02-21 00:50:00,63.1,61.0,30.07,ESE,110,0.0,0.0,93,0.00,CLR,,0.00,0.0,WeatherDisplay:10.37,2013-02-21 05:50:00,
2013-02-21 00:55:00,63.0,60.9,30.07,ESE,110,0.0,0.0,93,0.00,CLR,,0.00,0.0,WeatherDisplay:10.37,2013-02-21 05:55:00,
2013-02-21 01:00:00,63.0,60.9,30.07,ESE,110,0.0,0.0,93,0.00,CLR,,0.00,0.0,WeatherDisplay:10.37,2013-02-21 06:00:00,
2013-02-21 01:05:00,63.0,60.9,30.07,ESE,110,0.0,0.0,93,0.00,CLR,,0.00,0.0,WeatherDisplay:10.37,2013-02-21 06:05:00,
2013-02-21 01:10:00,62.9,60.8,30.07,ESE,110,0.0,0.0,93,0.00,CLR,,0.00,0.0,WeatherDisplay:10.37,2013-02-21 06:10:00,
2013-02-21 01:15:00,62.8,60.7,30.07,ESE,110,0.0,0.0,93,0.00,CLR,,0.00,0.0,WeatherDisplay:10.37,2013-02-21 06:15:00,
2013-02-21 01:20:00,62.7,60.9,30.06,ESE,110,0.0,0.0,94,0.00,CLR,,0.00,0.0,WeatherDisplay:10.37,2013-02-21 06:20:00,
2013-02-21 01:25:00,62.7,60.9,30.06,ESE,110,0.0,0.0,94,0.00,CLR,,0.00,0.0,WeatherDisplay:10.37,2013-02-21 06:25:00,
2013-02-21 01:30:00,62.6,60.8,30.05,ESE,110,0.0,0.0,94,0.00,CLR,,0.00,0.0,WeatherDisplay:10.37,2013-02-21 06:30:00,
2013-02-21 01:35:00,62.6,60.8,30.05,ESE,110,0.0,0.0,94,0.00,CLR,,0.00,0.0,WeatherDisplay:10.37,2013-02-21 06:35:00,
2013-02-21 01:40:00,62.5,60.7,30.05,ESE,110,0.0,0.0,94,0.00,CLR,,0.00,0.0,WeatherDisplay:10.37,2013-02-21 06:40:00,
2013-02-21 01:45:00,62.5,60.7,30.05,ESE,110,0.0,0.0,94,0.00,CLR,,0.00,0.0,WeatherDisplay:10.37,2013-02-21 06:45:00,
2013-02-21 01:50:00,62.4,60.7,30.05,ESE,110,0.0,0.0,94,0.00,CLR,,0.00,0.0,WeatherDisplay:10.37,2013-02-21 06:50:00,
2013-02-21 01:55:00,62.3,60.6,30.05,ESE,110,0.0,0.0,94,0.00,CLR,,0.00,0.0,WeatherDisplay:10.37,2013-02-21 06:55:00,
2013-02-21 02:00:00,62.3,60.6,30.05,ESE,110,0.0,0.0,94,0.00,CLR,,0.00,0.0,WeatherDisplay:10.37,2013-02-21 07:00:00,
2013-02-21 02:05:00,62.3,60.6,30.04,ESE,110,0.0,0.0,94,0.00,CLR,,0.00,0.0,WeatherDisplay:10.37,2013-02-21 07:05:00,
2013-02-21 02:10:00,62.2,60.5,30.04,ESE,110,0.0,0.0,94,0.00,CLR,,0.00,0.0,WeatherDisplay:10.37,2013-02-21 07:10:00,
2013-02-21 02:15:00,62.1,60.4,30.04,ESE,110,0.0,0.0,94,0.00,CLR,,0.00,0.0,WeatherDisplay:10.37,2013-02-21 07:15:00,
2013-02-21 02:20:00,62.1,60.4,30.03,ESE,110,0.0,0.0,94,0.00,CLR,,0.00,0.0,WeatherDisplay:10.37,2013-02-21 07:20:00,
2013-02-21 02:25:00,62.0,60.3,30.03,ESE,110,0.0,0.0,94,0.00,CLR,,0.00,0.0,WeatherDisplay:10.37,2013-02-21 07:25:00,
2013-02-21 02:30:00,62.0,60.3,30.03,ESE,110,0.0,0.0,94,0.00,CLR,,0.00,0.0,WeatherDisplay:10.37,2013-02-21 07:30:00,
2013-02-21 02:35:00,62.0,60.3,30.03,ESE,110,0.0,0.0,94,0.00,CLR,,0.00,0.0,WeatherDisplay:10.37,2013-02-21 07:35:00,
2013-02-21 02:40:00,62.0,60.3,30.02,ESE,110,0.0,0.0,94,0.00,CLR,,0.00,0.0,WeatherDisplay:10.37,2013-02-21 07:40:00,
2013-02-21 02:45:00,61.9,60.2,30.02,ESE,110,0.0,0.0,94,0.00,CLR,,0.00,0.0,WeatherDisplay:10.37,2013-02-21 07:45:00,
2013-02-21 02:50:00,61.9,60.2,30.02,ESE,110,0.0,0.0,94,0.00,CLR,,0.00,0.0,WeatherDisplay:10.37,2013-02-21 07:50:00,
2013-02-21 02:55:00,61.8,60.1,30.02,ESE,110,0.0,0.0,94,0.00,CLR,,0.00,0.0,WeatherDisplay:10.37,2013-02-21 07:55:00,
2013-02-21 03:00:00,61.7,60.0,30.02,ESE,110,0.0,0.0,94,0.00,CLR,,0.00,0.0,WeatherDisplay:10.37,2013-02-21 08:00:00,
2013-02-21 03:05:00,61.7,60.0,30.02,ESE,110,0.0,0.0,94,0.00,CLR,,0.00,0.0,WeatherDisplay:10.37,2013-02-21 08:05:00,
2013-02-21 03:10:00,61.7,60.0,30.02,ESE,110,0.0,0.0,94,0.00,CLR,,0.00,0.0,WeatherDisplay:10.37,2013-02-21 08:10:00,
2013-02-21 03:15:00,61.7,60.0,30.02,ESE,110,0.0,0.0,94,0.00,CLR,,0.00,0.0,WeatherDisplay:10.37,2013-02-21 08:15:00,
2013-02-21 03:20:00,61.6,59.9,30.02,ESE,110,0.0,0.0,94,0.00,CLR,,0.00,0.0,WeatherDisplay:10.37,2013-02-21 08:20:00,
2013-02-21 03:25:00,61.6,60.2,30.01,ESE,110,0.0,0.0,95,0.00,CLR,,0.00,0.0,WeatherDisplay:10.37,2013-02-21 08:25:00,
2013-02-21 03:30:00,61.6,60.2,30.02,ESE,110,0.0,0.0,95,0.00,CLR,,0.00,0.0,WeatherDisplay:10.37,2013-02-21 08:30:00,
2013-02-21 03:35:00,61.6,60.2,30.01,ESE,110,0.0,0.0,95,0.00,CLR,,0.00,0.0,WeatherDisplay:10.37,2013-02-21 08:35:00,
2013-02-21 03:40:00,61.7,60.3,30.02,ESE,110,0.0,0.0,95,0.00,CLR,,0.00,0.0,WeatherDisplay:10.37,2013-02-21 08:40:00,
2013-02-21 03:45:00,61.7,60.3,30.01,ESE,110,0.0,0.0,95,0.00,CLR,,0.00,0.0,WeatherDisplay:10.37,2013-02-21 08:45:00,
2013-02-21 03:50:00,61.8,60.4,30.02,ESE,110,0.0,0.0,95,0.00,CLR,,0.00,0.0,WeatherDisplay:10.37,2013-02-21 08:50:00,
2013-02-21 03:55:00,61.8,60.4,30.01,ESE,110,0.0,0.0,95,0.00,CLR,,0.00,0.0,WeatherDisplay:10.37,2013-02-21 08:55:00,
2013-02-21 04:00:00,61.8,60.4,30.02,ESE,110,0.0,0.0,95,0.00,CLR,,0.00,0.0,WeatherDisplay:10.37,2013-02-21 09:00:00,
2013-02-21 04:05:00,61.8,60.4,30.02,ESE,110,0.0,0.0,95,0.00,CLR,,0.00,0.0,WeatherDisplay:10.37,2013-02-21 09:05:00,
2013-02-21 04:10:00,61.9,60.5,30.02,ESE,110,0.0,0.0,95,0.00,CLR,,0.00,0.0,WeatherDisplay:10.37,2013-02-21 09:10:00,
2013-02-21 04:15:00,61.8,60.4,30.02,ESE,110,0.0,0.0,95,0.00,CLR,,0.00,0.0,WeatherDisplay:10.37,2013-02-21 09:15:00,
2013-02-21 04:20:00,61.8,60.4,30.02,ESE,110,0.0,0.0,95,0.00,CLR,,0.00,0.0,WeatherDisplay:10.37,2013-02-21 09:20:00,
2013-02-21 04:25:00,61.8,60.4,30.02,ESE,110,0.0,0.0,95,0.00,CLR,,0.00,0.0,WeatherDisplay:10.37,2013-02-21 09:25:00,
2013-02-21 04:30:00,62.0,60.6,30.02,ESE,110,0.0,0.0,95,0.00,CLR,,0.00,0.0,WeatherDisplay:10.37,2013-02-21 09:30:00,
2013-02-21 04:35:00,62.0,60.6,30.03,ESE,110,0.0,0.0,95,0.00,CLR,,0.00,0.0,WeatherDisplay:10.37,2013-02-21 09:35:00,
2013-02-21 04:40:00,62.1,60.7,30.03,ESE,110,0.0,0.0,95,0.00,CLR,,0.00,0.0,WeatherDisplay:10.37,2013-02-21 09:40:00,
2013-02-21 04:45:00,62.1,60.7,30.03,ESE,110,0.0,0.0,95,0.00,CLR,,0.00,0.0,WeatherDisplay:10.37,2013-02-21 09:45:00,
2013-02-21 04:50:00,62.1,60.7,30.03,ESE,110,0.0,0.0,95,0.00,CLR,,0.00,0.0,WeatherDisplay:10.37,2013-02-21 09:50:00,
2013-02-21 04:55:00,62.1,60.7,30.03,ESE,110,0.0,0.0,95,0.00,CLR,,0.00,0.0,WeatherDisplay:10.37,2013-02-21 09:55:00,
2013-02-21 05:00:00,62.1,60.7,30.03,ESE,110,0.0,0.0,95,0.00,CLR,,0.00,0.0,WeatherDisplay:10.37,2013-02-21 10:00:00,
2013-02-21 05:05:00,62.1,60.7,30.03,ESE,110,0.0,0.0,95,0.00,CLR,,0.00,0.0,WeatherDisplay:10.37,2013-02-21 10:05:00,
2013-02-21 05:10:00,62.1,60.7,30.04,ESE,110,0.0,0.0,95,0.00,CLR,,0.00,0.0,WeatherDisplay:10.37,2013-02-21 10:10:00,
2013-02-21 05:15:00,62.1,60.7,30.04,ESE,110,0.0,0.0,95,0.00,CLR,,0.00,0.0,WeatherDisplay:10.37,2013-02-21 10:15:00,
2013-02-21 05:20:00,62.1,60.7,30.04,ESE,110,0.0,0.0,95,0.00,CLR,,0.00,0.0,WeatherDisplay:10.37,2013-02-21 10:20:00,
2013-02-21 05:25:00,62.1,60.7,30.03,ESE,110,0.0,0.0,95,0.00,CLR,,0.00,0.0,WeatherDisplay:10.37,2013-02-21 10:25:00,
2013-02-21 05:30:00,62.1,60.7,30.04,ESE,110,0.0,0.0,95,0.00,CLR,,0.00,0.0,WeatherDisplay:10.37,2013-02-21 10:30:00,
2013-02-21 05:35:00,62.0,60.6,30.04,ESE,110,0.0,0.0,95,0.00,CLR,,0.00,0.0,WeatherDisplay:10.37,2013-02-21 10:35:00,
2013-02-21 05:40:00,62.0,60.6,30.04,ESE,110,0.0,0.0,95,0.00,CLR,,0.00,0.0,WeatherDisplay:10.37,2013-02-21 10:40:00,
2013-02-21 05:45:00,61.9,60.5,30.04,ESE,110,0.0,0.0,95,0.00,CLR,,0.00,0.0,WeatherDisplay:10.37,2013-02-21 10:45:00,
2013-02-21 05:50:00,61.9,60.5,30.04,ESE,110,0.0,0.0,95,0.00,CLR,,0.00,0.0,WeatherDisplay:10.37,2013-02-21 10:50:00,
2013-02-21 05:55:00,61.8,60.4,30.05,ESE,110,0.0,0.0,95,0.00,CLR,,0.00,0.0,WeatherDisplay:10.37,2013-02-21 10:55:00,
2013-02-21 06:00:00,61.8,60.4,30.05,ESE,110,0.0,0.0,95,0.00,CLR,,0.00,0.0,WeatherDisplay:10.37,2013-02-21 11:00:00,
2013-02-21 06:05:00,61.8,60.4,30.05,ESE,110,0.0,0.0,95,0.00,CLR,,0.00,0.0,WeatherDisplay:10.37,2013-02-21 11:05:00,
2013-02-21 06:10:00,61.7,60.3,30.05,ESE,110,0.0,0.0,95,0.00,CLR,,0.00,0.0,WeatherDisplay:10.37,2013-02-21 11:10:00,
2013-02-21 06:15:00,61.7,60.3,30.05,ESE,110,0.0,0.0,95,0.00,CLR,,0.00,0.0,WeatherDisplay:10.37,2013-02-21 11:15:00,
2013-02-21 06:20:00,61.6,60.2,30.06,ESE,110,0.0,0.0,95,0.00,CLR,,0.00,0.0,WeatherDisplay:10.37,2013-02-21 11:20:00,
2013-02-21 06:25:00,61.5,60.1,30.06,ESE,110,0.0,0.0,95,0.00,OVC,,0.00,0.0,WeatherDisplay:10.37,2013-02-21 11:25:00,
2013-02-21 06:30:00,61.4,60.0,30.06,ESE,110,0.0,0.0,95,0.00,OVC,,0.00,0.0,WeatherDisplay:10.37,2013-02-21 11:30:00,
2013-02-21 06:35:00,61.3,59.9,30.06,ESE,110,0.0,0.0,95,0.00,OVC,,0.00,0.0,WeatherDisplay:10.37,2013-02-21 11:35:00,
2013-02-21 06:40:00,61.2,59.8,30.06,ESE,110,0.0,0.0,95,0.00,OVC,,0.00,0.0,WeatherDisplay:10.37,2013-02-21 11:40:00,
2013-02-21 06:45:00,61.2,59.8,30.06,ESE,110,0.0,0.0,95,0.00,OVC,,0.00,0.0,WeatherDisplay:10.37,2013-02-21 11:45:00,
2013-02-21 06:50:00,61.2,59.8,30.06,ESE,110,0.0,0.0,95,0.00,OVC,,0.00,0.0,WeatherDisplay:10.37,2013-02-21 11:50:00,
2013-02-21 06:55:00,61.1,59.7,30.06,ESE,110,0.0,0.0,95,0.00,OVC,,0.00,5.0,WeatherDisplay:10.37,2013-02-21 11:55:00,
2013-02-21 07:00:00,61.1,59.7,30.06,ESE,110,0.0,0.0,95,0.00,BKN,,0.00,5.0,WeatherDisplay:10.37,2013-02-21 12:00:00,
2013-02-21 07:05:00,61.1,60.0,30.06,ESE,110,0.0,0.0,96,0.00,BKN,,0.00,9.0,WeatherDisplay:10.37,2013-02-21 12:05:00,
2013-02-21 07:10:00,61.1,60.0,30.07,ESE,110,0.0,0.0,96,0.00,BKN,,0.00,12.0,WeatherDisplay:10.37,2013-02-21 12:10:00,
2013-02-21 07:15:00,61.2,60.1,30.07,ESE,110,0.0,0.0,96,0.00,BKN,,0.00,14.0,WeatherDisplay:10.37,2013-02-21 12:15:00,
2013-02-21 07:20:00,61.4,60.2,30.07,ESE,110,0.0,0.0,96,0.00,BKN,,0.00,25.0,WeatherDisplay:10.37,2013-02-21 12:20:00,
2013-02-21 07:25:00,61.8,60.6,30.07,ESE,110,0.0,0.0,96,0.00,BKN,,0.00,42.0,WeatherDisplay:10.37,2013-02-21 12:25:00,
2013-02-21 07:30:00,62.2,61.3,30.07,ESE,110,0.0,0.0,97,0.00,SCT,,0.00,62.0,WeatherDisplay:10.37,2013-02-21 12:30:00,
2013-02-21 07:35:00,62.7,61.8,30.08,ESE,110,0.0,0.0,97,0.00,CLR,,0.00,121.0,WeatherDisplay:10.37,2013-02-21 12:35:00,
2013-02-21 07:40:00,63.2,62.3,30.08,ESE,110,0.0,0.0,97,0.00,CLR,,0.00,160.0,WeatherDisplay:10.37,2013-02-21 12:40:00,
2013-02-21 07:45:00,64.0,63.4,30.08,ESE,110,0.0,0.0,98,0.00,CLR,,0.00,128.0,WeatherDisplay:10.37,2013-02-21 12:45:00,
2013-02-21 07:50:00,64.6,64.0,30.08,ESE,110,0.0,0.0,98,0.00,CLR,,0.00,227.0,WeatherDisplay:10.37,2013-02-21 12:50:00,
2013-02-21 07:55:00,65.2,64.6,30.08,ESE,110,0.0,0.0,98,0.00,CLR,,0.00,128.0,WeatherDisplay:10.37,2013-02-21 12:55:00,
2013-02-21 08:00:00,66.0,65.4,30.08,ESE,110,0.0,0.0,98,0.00,CLR,,0.00,241.0,WeatherDisplay:10.37,2013-02-21 13:00:00,
2013-02-21 08:05:00,67.2,66.6,30.08,ESE,110,0.0,0.0,98,0.00,CLR,,0.00,218.0,WeatherDisplay:10.37,2013-02-21 13:05:00,
2013-02-21 08:10:00,68.4,67.8,30.09,ESE,110,0.0,0.0,98,0.00,CLR,,0.00,220.0,WeatherDisplay:10.37,2013-02-21 13:10:00,
2013-02-21 08:15:00,69.3,68.7,30.09,ESE,110,0.0,0.0,98,0.00,CLR,,0.00,236.0,WeatherDisplay:10.37,2013-02-21 13:15:00,
2013-02-21 08:20:00,70.6,68.8,30.09,ESE,110,0.0,0.0,94,0.00,CLR,,0.00,267.0,WeatherDisplay:10.37,2013-02-21 13:20:00,
2013-02-21 08:25:00,71.6,68.8,30.09,ESE,110,0.0,0.0,91,0.00,CLR,,0.00,276.0,WeatherDisplay:10.37,2013-02-21 13:25:00,
2013-02-21 08:30:00,72.5,68.1,30.09,East,96,1.3,2.3,86,0.00,CLR,,0.00,316.0,WeatherDisplay:10.37,2013-02-21 13:30:00,
2013-02-21 08:35:00,73.9,68.1,30.09,ESE,111,0.0,3.5,82,0.00,CLR,,0.00,329.0,WeatherDisplay:10.37,2013-02-21 13:35:00,
2013-02-21 08:40:00,74.9,67.9,30.09,ESE,103,2.2,3.5,79,0.00,CLR,,0.00,334.0,WeatherDisplay:10.37,2013-02-21 13:40:00,
2013-02-21 08:45:00,75.6,67.9,30.09,SE,129,1.6,4.0,77,0.00,CLR,,0.00,345.0,WeatherDisplay:10.37,2013-02-21 13:45:00,
2013-02-21 08:50:00,76.2,68.1,30.09,ESE,121,1.7,4.6,76,0.00,CLR,,0.00,362.0,WeatherDisplay:10.37,2013-02-21 13:50:00,
2013-02-21 08:55:00,76.7,68.2,30.09,ESE,102,0.6,2.3,75,0.00,CLR,,0.00,378.0,WeatherDisplay:10.37,2013-02-21 13:55:00,
2013-02-21 09:00:00,77.3,68.4,30.09,ESE,113,0.7,2.3,74,0.00,CLR,,0.00,392.0,WeatherDisplay:10.37,2013-02-21 14:00:00,
2013-02-21 09:05:00,77.7,68.0,30.09,ESE,123,3.3,7.0,72,0.00,CLR,,0.00,411.0,WeatherDisplay:10.37,2013-02-21 14:05:00,
2013-02-21 09:10:00,77.8,67.2,30.09,ESE,105,4.0,8.1,70,0.00,CLR,,0.00,434.0,WeatherDisplay:10.37,2013-02-21 14:10:00,
2013-02-21 09:15:00,78.0,67.4,30.09,ESE,115,0.4,3.5,70,0.00,CLR,,0.00,464.0,WeatherDisplay:10.37,2013-02-21 14:15:00,
2013-02-21 09:20:00,78.4,68.2,30.10,ESE,108,3.4,4.6,71,0.00,CLR,,0.00,297.0,WeatherDisplay:10.37,2013-02-21 14:20:00,
2013-02-21 09:25:00,78.0,68.2,30.10,ESE,121,2.5,3.5,72,0.00,FEW,,0.00,100.0,WeatherDisplay:10.37,2013-02-21 14:25:00,
2013-02-21 09:30:00,77.3,68.4,30.10,ESE,109,1.4,3.5,74,0.00,BKN,,0.00,148.0,WeatherDisplay:10.37,2013-02-21 14:30:00,
2013-02-21 09:35:00,77.0,68.1,30.10,ESE,117,2.5,4.6,74,0.00,SCT,,0.00,531.0,WeatherDisplay:10.37,2013-02-21 14:35:00,
2013-02-21 09:40:00,77.0,68.5,30.10,NE,50,1.6,3.5,75,0.00,SCT,,0.00,299.0,WeatherDisplay:10.37,2013-02-21 14:40:00,
2013-02-21 09:45:00,76.7,68.6,30.11,East,95,2.3,3.5,76,0.00,BKN,,0.00,445.0,WeatherDisplay:10.37,2013-02-21 14:45:00,
2013-02-21 09:50:00,77.0,68.9,30.10,East,101,3.1,5.8,76,0.00,SCT,,0.00,510.0,WeatherDisplay:10.37,2013-02-21 14:50:00,
2013-02-21 09:55:00,77.5,68.6,30.11,ESE,113,3.5,6.9,74,0.00,CLR,,0.00,605.0,WeatherDisplay:10.37,2013-02-21 14:55:00,
2013-02-21 10:00:00,77.9,68.9,30.10,East,85,2.4,6.9,74,0.00,CLR,,0.00,629.0,WeatherDisplay:10.37,2013-02-21 15:00:00,
2013-02-21 10:05:00,78.4,69.0,30.11,East,87,3.1,3.5,73,0.00,CLR,,0.00,650.0,WeatherDisplay:10.37,2013-02-21 15:05:00,
2013-02-21 10:10:00,78.8,69.0,30.11,ESE,120,4.0,5.8,72,0.00,CLR,,0.00,635.0,WeatherDisplay:10.37,2013-02-21 15:10:00,
2013-02-21 10:15:00,79.1,69.3,30.11,ESE,106,2.9,4.6,72,0.00,CLR,,0.00,371.0,WeatherDisplay:10.37,2013-02-21 15:15:00,
2013-02-21 10:20:00,79.2,69.4,30.11,East,96,4.1,8.1,72,0.00,FEW,,0.00,606.0,WeatherDisplay:10.37,2013-02-21 15:20:00,
2013-02-21 10:25:00,79.4,69.6,30.11,ESE,110,4.0,6.9,72,0.00,FEW,,0.00,705.0,WeatherDisplay:10.37,2013-02-21 15:25:00,
2013-02-21 10:30:00,79.6,69.4,30.11,East,92,3.8,6.0,71,0.00,CLR,,0.00,763.0,WeatherDisplay:10.37,2013-02-21 15:30:00,
2013-02-21 10:35:00,79.3,69.1,30.11,ESE,118,2.7,6.9,71,0.00,CLR,,0.00,272.0,WeatherDisplay:10.37,2013-02-21 15:35:00,
2013-02-21 10:40:00,79.3,69.9,30.11,ESE,120,3.3,6.9,73,0.00,SCT,,0.00,733.0,WeatherDisplay:10.37,2013-02-21 15:40:00,
2013-02-21 10:45:00,79.4,69.6,30.11,ESE,111,3.3,4.6,72,0.00,SCT,,0.00,301.0,WeatherDisplay:10.37,2013-02-21 15:45:00,
2013-02-21 10:50:00,79.4,69.6,30.11,SE,132,2.7,5.0,72,0.00,FEW,,0.00,684.0,WeatherDisplay:10.37,2013-02-21 15:50:00,
2013-02-21 10:55:00,79.6,69.4,30.10,ESE,120,4.7,7.0,71,0.00,CLR,,0.00,707.0,WeatherDisplay:10.37,2013-02-21 15:55:00,
2013-02-21 11:00:00,79.8,69.6,30.10,SE,126,4.6,6.9,71,0.00,CLR,,0.00,724.0,WeatherDisplay:10.37,2013-02-21 16:00:00,
2013-02-21 11:05:00,80.0,69.7,30.10,ESE,107,3.8,7.0,71,0.00,CLR,,0.00,747.0,WeatherDisplay:10.37,2013-02-21 16:05:00,
2013-02-21 11:10:00,80.4,69.7,30.10,ENE,57,4.2,5.0,70,0.00,CLR,,0.00,679.0,WeatherDisplay:10.37,2013-02-21 16:10:00,
2013-02-21 11:15:00,80.5,69.8,30.11,ESE,114,2.4,3.5,70,0.00,CLR,,0.00,647.0,WeatherDisplay:10.37,2013-02-21 16:15:00,
2013-02-21 11:20:00,80.4,68.9,30.11,ESE,103,5.2,8.1,68,0.00,FEW,,0.00,652.0,WeatherDisplay:10.37,2013-02-21 16:20:00,
2013-02-21 11:25:00,80.1,69.4,30.11,ESE,105,3.5,7.0,70,0.00,CLR,,0.00,700.0,WeatherDisplay:10.37,2013-02-21 16:25:00,
2013-02-21 11:30:00,79.9,69.2,30.10,ENE,78,3.7,6.9,70,0.00,FEW,,0.00,592.0,WeatherDisplay:10.37,2013-02-21 16:30:00,
2013-02-21 11:35:00,80.0,69.7,30.10,East,98,3.3,6.0,71,0.00,FEW,,0.00,735.0,WeatherDisplay:10.37,2013-02-21 16:35:00,
2013-02-21 11:40:00,80.1,69.4,30.11,SE,139,2.3,6.9,70,0.00,FEW,,0.00,601.0,WeatherDisplay:10.37,2013-02-21 16:40:00,
2013-02-21 11:45:00,80.1,69.4,30.10,ESE,117,5.2,8.1,70,0.00,FEW,,0.00,798.0,WeatherDisplay:10.37,2013-02-21 16:45:00,
2013-02-21 11:50:00,79.8,69.1,30.10,SE,128,5.5,9.0,70,0.00,FEW,,0.00,805.0,WeatherDisplay:10.37,2013-02-21 16:50:00,
2013-02-21 11:55:00,79.3,69.5,30.10,ESE,102,2.7,6.9,72,0.00,CLR,,0.00,527.0,WeatherDisplay:10.37,2013-02-21 16:55:00,
2013-02-21 12:00:00,79.7,69.5,30.10,East,98,5.7,9.2,71,0.00,CLR,,0.00,854.0,WeatherDisplay:10.37,2013-02-21 17:00:00,
2013-02-21 12:05:00,79.9,69.7,30.10,East,94,3.7,8.0,71,0.00,CLR,,0.00,837.0,WeatherDisplay:10.37,2013-02-21 17:05:00,
2013-02-21 12:10:00,80.0,70.2,30.09,SE,132,5.2,6.9,72,0.00,CLR,,0.00,492.0,WeatherDisplay:10.37,2013-02-21 17:10:00,
2013-02-21 12:15:00,79.3,69.1,30.09,ESE,105,4.4,7.0,71,0.00,FEW,,0.00,496.0,WeatherDisplay:10.37,2013-02-21 17:15:00,
2013-02-21 12:20:00,79.2,69.8,30.09,NE,55,3.0,5.0,73,0.00,SCT,,0.00,891.0,WeatherDisplay:10.37,2013-02-21 17:20:00,
2013-02-21 12:25:00,79.8,70.0,30.09,East,98,4.0,6.9,72,0.00,FEW,,0.00,650.0,WeatherDisplay:10.37,2013-02-21 17:25:00,
2013-02-21 12:30:00,79.8,69.6,30.09,ENE,74,4.5,8.1,71,0.00,FEW,,0.00,313.0,WeatherDisplay:10.37,2013-02-21 17:30:00,
2013-02-21 12:35:00,80.1,70.3,30.08,ESE,116,4.2,8.1,72,0.00,SCT,,0.00,911.0,WeatherDisplay:10.37,2013-02-21 17:35:00,
2013-02-21 12:40:00,80.1,69.8,30.08,ESE,105,4.5,8.1,71,0.00,SCT,,0.00,304.0,WeatherDisplay:10.37,2013-02-21 17:40:00,
2013-02-21 12:45:00,80.0,70.2,30.08,East,91,4.8,8.1,72,0.00,FEW,,0.00,751.0,WeatherDisplay:10.37,2013-02-21 17:45:00,
2013-02-21 12:50:00,80.0,70.6,30.08,ESE,119,3.6,5.8,73,0.00,FEW,,0.00,900.0,WeatherDisplay:10.37,2013-02-21 17:50:00,
2013-02-21 12:55:00,79.8,70.4,30.08,East,79,3.2,8.0,73,0.00,FEW,,0.00,766.0,WeatherDisplay:10.37,2013-02-21 17:55:00,
2013-02-21 13:00:00,79.6,69.8,30.08,SE,128,5.9,8.1,72,0.00,SCT,,0.00,338.0,WeatherDisplay:10.37,2013-02-21 18:00:00,
2013-02-21 13:05:00,79.3,69.9,30.07,ESE,103,3.1,5.8,73,0.00,SCT,,0.00,911.0,WeatherDisplay:10.37,2013-02-21 18:05:00,
2013-02-21 13:10:00,79.2,69.8,30.07,East,89,4.7,8.1,73,0.00,SCT,,0.00,411.0,WeatherDisplay:10.37,2013-02-21 18:10:00,
2013-02-21 13:15:00,79.3,70.7,30.07,ESE,106,4.1,5.8,75,0.00,FEW,,0.00,728.0,WeatherDisplay:10.37,2013-02-21 18:15:00,
2013-02-21 13:20:00,79.6,70.6,30.07,ENE,71,4.9,6.9,74,0.00,FEW,,0.00,664.0,WeatherDisplay:10.37,2013-02-21 18:20:00,
2013-02-21 13:25:00,79.3,69.9,30.06,ENE,75,4.7,7.0,73,0.00,SCT,,0.00,306.0,WeatherDisplay:10.37,2013-02-21 18:25:00,
2013-02-21 13:30:00,78.7,69.7,30.06,East,85,2.8,6.9,74,0.00,SCT,,0.00,575.0,WeatherDisplay:10.37,2013-02-21 18:30:00,
2013-02-21 13:35:00,78.7,70.1,30.06,East,89,1.5,6.9,75,0.00,BKN,,0.00,612.0,WeatherDisplay:10.37,2013-02-21 18:35:00,
2013-02-21 13:40:00,78.8,69.8,30.06,ENE,62,3.1,5.8,74,0.00,SCT,,0.00,364.0,WeatherDisplay:10.37,2013-02-21 18:40:00,
2013-02-21 13:45:00,78.8,69.8,30.06,East,92,2.5,6.9,74,0.00,SCT,,0.00,429.0,WeatherDisplay:10.37,2013-02-21 18:45:00,
2013-02-21 13:50:00,78.7,69.7,30.05,SE,130,5.4,9.2,74,0.00,BKN,,0.00,415.0,WeatherDisplay:10.37,2013-02-21 18:50:00,
2013-02-21 13:55:00,78.7,70.5,30.05,East,96,5.7,9.0,76,0.00,SCT,,0.00,483.0,WeatherDisplay:10.37,2013-02-21 18:55:00,
2013-02-21 14:00:00,78.7,70.1,30.05,SE,132,4.5,8.1,75,0.00,SCT,,0.00,784.0,WeatherDisplay:10.37,2013-02-21 19:00:00,
2013-02-21 14:05:00,79.2,70.6,30.05,ESE,121,3.4,4.0,75,0.00,SCT,,0.00,485.0,WeatherDisplay:10.37,2013-02-21 19:05:00,
2013-02-21 14:10:00,79.3,69.5,30.05,ESE,120,5.2,8.1,72,0.00,SCT,,0.00,476.0,WeatherDisplay:10.37,2013-02-21 19:10:00,
2013-02-21 14:15:00,79.2,69.4,30.05,ESE,105,5.7,6.9,72,0.00,SCT,,0.00,633.0,WeatherDisplay:10.37,2013-02-21 19:15:00,
2013-02-21 14:20:00,79.0,69.2,30.05,East,101,2.8,4.6,72,0.00,SCT,,0.00,294.0,WeatherDisplay:10.37,2013-02-21 19:20:00,
2013-02-21 14:25:00,79.1,69.3,30.05,ESE,121,3.3,7.0,72,0.00,SCT,,0.00,555.0,WeatherDisplay:10.37,2013-02-21 19:25:00,
2013-02-21 14:30:00,79.1,69.3,30.05,East,80,4.6,9.2,72,0.00,SCT,,0.00,591.0,WeatherDisplay:10.37,2013-02-21 19:30:00,
2013-02-21 14:35:00,79.3,68.2,30.05,ESE,119,2.7,4.6,69,0.00,SCT,,0.00,272.0,WeatherDisplay:10.37,2013-02-21 19:35:00,
2013-02-21 14:40:00,79.3,68.2,30.04,SE,125,3.2,5.8,69,0.00,SCT,,0.00,506.0,WeatherDisplay:10.37,2013-02-21 19:40:00,
2013-02-21 14:45:00,79.6,69.0,30.04,ESE,117,4.9,6.9,70,0.00,SCT,,0.00,563.0,WeatherDisplay:10.37,2013-02-21 19:45:00,
2013-02-21 14:50:00,79.7,69.0,30.04,ESE,111,2.7,6.9,70,0.00,FEW,,0.00,413.0,WeatherDisplay:10.37,2013-02-21 19:50:00,
2013-02-21 14:55:00,79.6,69.0,30.05,ESE,107,3.5,8.1,70,0.00,SCT,,0.00,503.0,WeatherDisplay:10.37,2013-02-21 19:55:00,
2013-02-21 15:00:00,79.4,68.8,30.04,ESE,123,6.5,9.2,70,0.00,SCT,,0.00,554.0,WeatherDisplay:10.37,2013-02-21 20:00:00,
2013-02-21 15:06:00,79.6,69.4,30.04,ESE,120,2.0,8.0,71,0.00,FEW,FEW,0.00,503.0,WeatherDisplay:10.37,2013-02-21 20:06:00,
2013-02-21 15:11:00,80.1,69.4,30.04,ESE,107,5.0,7.0,70,0.00,FEW,FEW,0.00,512.0,WeatherDisplay:10.37,2013-02-21 20:11:00,
2013-02-21 15:16:00,80.1,68.6,30.04,ESE,122,4.4,9.2,68,0.00,FEW,,0.00,517.0,WeatherDisplay:10.37,2013-02-21 20:16:00,
2013-02-21 15:21:00,80.0,68.4,30.04,ESE,122,3.0,9.0,68,0.00,CLR,CLR,0.00,512.0,WeatherDisplay:10.37,2013-02-21 20:21:00,
2013-02-21 15:26:00,79.7,67.8,30.04,ESE,108,1.7,5.8,67,0.00,CLR,,0.00,476.0,WeatherDisplay:10.37,2013-02-21 20:26:00,
2013-02-21 15:31:00,79.9,67.5,30.04,ESE,115,5.0,8.0,66,0.00,CLR,CLR,0.00,461.0,WeatherDisplay:10.37,2013-02-21 20:31:00,
2013-02-21 15:36:00,80.1,68.2,30.04,ESE,108,2.0,9.0,67,0.00,FEW,FEW,0.00,450.0,WeatherDisplay:10.37,2013-02-21 20:36:00,
2013-02-21 15:41:00,80.2,67.8,30.04,ESE,117,4.8,9.2,66,0.00,CLR,,0.00,427.0,WeatherDisplay:10.37,2013-02-21 20:41:00,
2013-02-21 15:46:00,80.2,67.8,30.04,ESE,119,3.0,8.0,66,0.00,FEW,FEW,0.00,415.0,WeatherDisplay:10.37,2013-02-21 20:46:00,
2013-02-21 15:51:00,80.0,67.2,30.04,ESE,113,3.0,9.0,65,0.00,FEW,FEW,0.00,394.0,WeatherDisplay:10.37,2013-02-21 20:51:00,
2013-02-21 15:56:00,80.0,68.1,30.04,ESE,109,3.0,7.0,67,0.00,FEW,FEW,0.00,380.0,WeatherDisplay:10.37,2013-02-21 20:56:00,
2013-02-21 16:01:00,80.0,68.5,30.04,ESE,107,3.0,8.0,68,0.00,FEW,FEW,0.00,380.0,WeatherDisplay:10.37,2013-02-21 21:01:00,
2013-02-21 16:06:00,80.0,68.5,30.04,ESE,121,3.6,7.0,68,0.00,FEW,,0.00,350.0,WeatherDisplay:10.37,2013-02-21 21:06:00,
2013-02-21 16:11:00,79.5,68.0,30.04,ESE,108,5.0,10.0,68,0.00,FEW,FEW,0.00,341.0,WeatherDisplay:10.37,2013-02-21 21:11:00,
2013-02-21 16:16:00,78.6,68.0,30.04,ESE,113,3.2,3.5,70,0.00,FEW,,0.00,156.0,WeatherDisplay:10.37,2013-02-21 21:16:00,
2013-02-21 16:21:00,78.0,67.4,30.04,ESE,121,1.4,4.6,70,0.00,SCT,,0.00,156.0,WeatherDisplay:10.37,2013-02-21 21:21:00,
2013-02-21 16:26:00,77.8,68.0,30.04,ESE,114,5.0,10.0,72,0.00,BKN,BKN,0.00,74.0,WeatherDisplay:10.37,2013-02-21 21:26:00,
2013-02-21 16:31:00,77.5,67.3,30.04,ESE,122,5.0,10.0,71,0.00,BKN,BKN,0.00,53.0,WeatherDisplay:10.37,2013-02-21 21:31:00,
2013-02-21 16:36:00,76.9,67.2,30.04,ESE,107,2.3,4.6,72,0.00,BKN,,0.00,54.0,WeatherDisplay:10.37,2013-02-21 21:36:00,
2013-02-21 16:41:00,76.6,67.3,30.04,ESE,112,3.0,8.0,73,0.00,BKN,BKN,0.00,58.0,WeatherDisplay:10.37,2013-02-21 21:41:00,
2013-02-21 16:46:00,76.3,67.8,30.04,ESE,120,2.0,8.0,75,0.00,BKN,BKN,0.00,37.0,WeatherDisplay:10.37,2013-02-21 21:46:00,
2013-02-21 16:51:00,76.3,67.8,30.04,SE,131,3.0,6.0,75,0.00,BKN,BKN,0.00,35.0,WeatherDisplay:10.37,2013-02-21 21:51:00,
2013-02-21 16:56:00,76.2,67.7,30.04,SE,134,6.0,9.0,75,0.00,BKN,BKN,0.00,32.0,WeatherDisplay:10.37,2013-02-21 21:56:00,
2013-02-21 17:01:00,76.1,67.6,30.04,SE,130,6.4,9.2,75,0.00,BKN,,0.00,32.0,WeatherDisplay:10.37,2013-02-21 22:01:00,
2013-02-21 17:06:00,75.9,67.8,30.04,SSE,150,3.5,8.1,76,0.00,BKN,,0.00,32.0,WeatherDisplay:10.37,2013-02-21 22:06:00,
2013-02-21 17:11:00,75.8,68.1,30.04,ESE,123,3.0,7.0,77,0.00,BKN,BKN,0.00,30.0,WeatherDisplay:10.37,2013-02-21 22:11:00,
2013-02-21 17:16:00,75.8,67.7,30.04,ESE,121,4.5,5.8,76,0.00,BKN,,0.00,28.0,WeatherDisplay:10.37,2013-02-21 22:16:00,
2013-02-21 17:21:00,75.8,68.1,30.04,ESE,104,3.0,10.0,77,0.00,BKN,BKN,0.00,28.0,WeatherDisplay:10.37,2013-02-21 22:21:00,
2013-02-21 17:26:00,75.7,68.0,30.04,East,101,1.0,8.0,77,0.00,BKN,BKN,0.00,35.0,WeatherDisplay:10.37,2013-02-21 22:26:00,
2013-02-21 17:31:00,75.6,67.9,30.04,SE,128,4.2,6.9,77,0.00,BKN,,0.00,32.0,WeatherDisplay:10.37,2013-02-21 22:31:00,
2013-02-21 17:36:00,75.5,67.8,30.04,SE,132,1.0,7.0,77,0.00,BKN,BKN,0.00,26.0,WeatherDisplay:10.37,2013-02-21 22:36:00,
2013-02-21 17:41:00,75.3,67.6,30.04,ESE,110,0.7,5.8,77,0.00,BKN,,0.00,25.0,WeatherDisplay:10.37,2013-02-21 22:41:00,
2013-02-21 17:46:00,75.1,67.4,30.04,SSW,199,4.0,6.9,77,0.00,BKN,,0.00,21.0,WeatherDisplay:10.37,2013-02-21 22:46:00,
2013-02-21 17:51:00,74.9,67.2,30.03,SE,136,3.3,7.0,77,0.00,BKN,,0.00,18.0,WeatherDisplay:10.37,2013-02-21 22:51:00,
2013-02-21 17:56:00,74.8,67.5,30.04,ESE,110,1.6,6.9,78,0.00,BKN,,0.00,16.0,WeatherDisplay:10.37,2013-02-21 22:56:00,
2013-02-21 18:01:00,74.5,67.6,30.04,ESE,122,0.8,3.5,79,0.00,BKN,,0.00,14.0,WeatherDisplay:10.37,2013-02-21 23:01:00,
2013-02-21 18:06:00,74.4,67.4,30.04,SE,124,2.0,7.0,79,0.00,SCT,SCT,0.00,11.0,WeatherDisplay:10.37,2013-02-21 23:06:00,
2013-02-21 18:11:00,74.2,67.3,30.04,ESE,121,2.0,7.0,79,0.00,FEW,FEW,0.00,7.0,WeatherDisplay:10.37,2013-02-21 23:11:00,
2013-02-21 18:16:00,73.9,67.3,30.04,ESE,108,1.1,4.6,80,0.00,OVC,,0.00,5.0,WeatherDisplay:10.37,2013-02-21 23:16:00,
2013-02-21 18:21:00,73.8,67.6,30.04,SE,138,0.0,3.0,81,0.00,OVC,OVC,0.00,0.0,WeatherDisplay:10.37,2013-02-21 23:21:00,
2013-02-21 18:26:00,73.7,67.5,30.04,ESE,114,1.3,3.5,81,0.00,OVC,,0.00,0.0,WeatherDisplay:10.37,2013-02-21 23:26:00,
2013-02-21 18:31:00,73.6,67.4,30.04,ESE,121,2.0,6.0,81,0.00,OVC,OVC,0.00,0.0,WeatherDisplay:10.37,2013-02-21 23:31:00,
2013-02-21 18:36:00,73.5,67.3,30.04,ESE,121,0.8,4.6,81,0.00,OVC,,0.00,0.0,WeatherDisplay:10.37,2013-02-21 23:36:00,
2013-02-21 18:41:00,73.5,67.7,30.04,ESE,119,2.6,4.6,82,0.00,OVC,,0.00,0.0,WeatherDisplay:10.37,2013-02-21 23:41:00,
2013-02-21 18:46:00,73.5,67.7,30.04,East,99,3.2,3.5,82,0.00,OVC,,0.00,0.0,WeatherDisplay:10.37,2013-02-21 23:46:00,
2013-02-21 18:51:00,73.5,67.3,30.04,ESE,116,3.3,6.9,81,0.00,CLR,,0.00,0.0,WeatherDisplay:10.37,2013-02-21 23:51:00,
2013-02-21 18:56:00,73.6,67.0,30.04,ESE,105,2.5,5.8,80,0.00,CLR,,0.00,0.0,WeatherDisplay:10.37,2013-02-21 23:56:00,
2013-02-21 19:01:00,73.6,67.4,30.04,SE,128,4.4,7.0,81,0.00,CLR,,0.00,0.0,WeatherDisplay:10.37,2013-02-22 00:01:00,
2013-02-21 19:06:00,73.7,67.5,30.04,ESE,123,2.0,9.0,81,0.00,CLR,CLR,0.00,0.0,WeatherDisplay:10.37,2013-02-22 00:06:00,
2013-02-21 19:11:00,73.7,67.1,30.04,ESE,110,3.2,6.9,80,0.00,CLR,,0.00,0.0,WeatherDisplay:10.37,2013-02-22 00:11:00,
2013-02-21 19:16:00,73.7,67.1,30.05,SE,139,3.7,5.0,80,0.00,CLR,,0.00,0.0,WeatherDisplay:10.37,2013-02-22 00:16:00,
2013-02-21 19:21:00,73.6,67.0,30.05,East,101,1.1,2.3,80,0.00,CLR,,0.00,0.0,WeatherDisplay:10.37,2013-02-22 00:21:00,
2013-02-21 19:26:00,73.5,66.9,30.05,SE,134,3.8,3.8,80,0.00,CLR,,0.00,0.0,WeatherDisplay:10.37,2013-02-22 00:26:00,
2013-02-21 19:31:00,73.4,66.9,30.05,ESE,114,2.8,5.8,80,0.00,CLR,,0.00,0.0,WeatherDisplay:10.37,2013-02-22 00:31:00,
2013-02-21 19:36:00,73.4,66.9,30.05,ESE,111,3.0,6.0,80,0.00,CLR,CLR,0.00,0.0,WeatherDisplay:10.37,2013-02-22 00:36:00,
2013-02-21 19:41:00,73.4,66.9,30.05,ESE,117,2.6,3.5,80,0.00,CLR,,0.00,0.0,WeatherDisplay:10.37,2013-02-22 00:41:00,
2013-02-21 19:46:00,73.3,67.1,30.05,SSE,153,3.8,3.8,81,0.00,CLR,,0.00,0.0,WeatherDisplay:10.37,2013-02-22 00:46:00,
2013-02-21 19:51:00,73.2,66.7,30.05,ESE,115,3.0,6.0,80,0.00,CLR,CLR,0.00,0.0,WeatherDisplay:10.37,2013-02-22 00:51:00,
2013-02-21 19:56:00,73.2,67.1,30.05,ESE,109,3.0,7.0,81,0.00,CLR,CLR,0.00,0.0,WeatherDisplay:10.37,2013-02-22 00:56:00,
2013-02-21 20:01:00,73.2,66.7,30.05,ESE,106,2.0,3.5,80,0.00,CLR,,0.00,0.0,WeatherDisplay:10.37,2013-02-22 01:01:00,
2013-02-21 20:06:00,73.1,66.6,30.06,ESE,117,4.5,4.6,80,0.00,CLR,,0.00,0.0,WeatherDisplay:10.37,2013-02-22 01:06:00,
2013-02-21 20:11:00,73.1,66.9,30.06,SE,125,3.0,4.6,81,0.00,CLR,,0.00,0.0,WeatherDisplay:10.37,2013-02-22 01:11:00,
2013-02-21 20:16:00,73.0,66.8,30.06,SE,126,3.0,7.0,81,0.00,CLR,CLR,0.00,0.0,WeatherDisplay:10.37,2013-02-22 01:16:00,
2013-02-21 20:21:00,73.0,66.8,30.06,ESE,119,3.6,6.9,81,0.00,CLR,,0.00,0.0,WeatherDisplay:10.37,2013-02-22 01:21:00,
2013-02-21 20:26:00,73.0,66.8,30.06,SE,126,2.0,7.0,81,0.00,CLR,CLR,0.00,0.0,WeatherDisplay:10.37,2013-02-22 01:26:00,
2013-02-21 20:31:00,73.0,67.2,30.05,ESE,105,2.9,3.5,82,0.00,CLR,,0.00,0.0,WeatherDisplay:10.37,2013-02-22 01:31:00,
2013-02-21 20:36:00,73.0,66.8,30.06,SE,128,0.5,6.9,81,0.00,CLR,,0.00,0.0,WeatherDisplay:10.37,2013-02-22 01:36:00,
2013-02-21 20:41:00,73.1,67.3,30.06,SE,131,1.9,3.5,82,0.00,CLR,,0.00,0.0,WeatherDisplay:10.37,2013-02-22 01:41:00,
2013-02-21 20:46:00,73.0,67.2,30.06,ESE,119,3.0,7.0,82,0.00,CLR,CLR,0.00,0.0,WeatherDisplay:10.37,2013-02-22 01:46:00,
2013-02-21 20:51:00,73.0,67.2,30.06,ESE,118,3.0,9.0,82,0.00,CLR,CLR,0.00,0.0,WeatherDisplay:10.37,2013-02-22 01:51:00,
2013-02-21 20:56:00,73.0,67.2,30.06,ESE,113,3.4,4.6,82,0.00,CLR,,0.00,0.0,WeatherDisplay:10.37,2013-02-22 01:56:00,
2013-02-21 21:01:00,73.0,67.2,30.06,ESE,107,3.7,6.9,82,0.00,CLR,,0.00,0.0,WeatherDisplay:10.37,2013-02-22 02:01:00,
2013-02-21 21:06:00,72.9,67.1,30.06,ESE,109,1.0,6.0,82,0.00,CLR,CLR,0.00,0.0,WeatherDisplay:10.37,2013-02-22 02:06:00,
2013-02-21 21:11:00,72.9,67.1,30.06,East,101,2.0,3.5,82,0.00,CLR,,0.00,0.0,WeatherDisplay:10.37,2013-02-22 02:11:00,
2013-02-21 21:16:00,72.9,67.1,30.06,ESE,114,2.6,9.2,82,0.00,CLR,,0.00,0.0,WeatherDisplay:10.37,2013-02-22 02:16:00,
2013-02-21 21:21:00,72.9,67.1,30.06,SE,126,1.6,6.9,82,0.00,CLR,,0.00,0.0,WeatherDisplay:10.37,2013-02-22 02:21:00,
2013-02-21 21:26:00,72.9,67.1,30.06,SE,125,5.0,10.0,82,0.00,CLR,CLR,0.00,0.0,WeatherDisplay:10.37,2013-02-22 02:26:00,
2013-02-21 21:31:00,72.9,67.1,30.07,SE,130,3.5,6.9,82,0.00,CLR,,0.00,0.0,WeatherDisplay:10.37,2013-02-22 02:31:00,
2013-02-21 21:36:00,72.8,67.0,30.07,SE,125,2.0,5.0,82,0.00,CLR,CLR,0.00,0.0,WeatherDisplay:10.37,2013-02-22 02:36:00,
2013-02-21 21:41:00,72.8,67.0,30.07,SE,124,5.0,8.0,82,0.00,CLR,CLR,0.00,0.0,WeatherDisplay:10.37,2013-02-22 02:41:00,
2013-02-21 21:46:00,72.8,67.0,30.07,ESE,119,1.0,9.0,82,0.00,CLR,CLR,0.00,0.0,WeatherDisplay:10.37,2013-02-22 02:46:00,
2013-02-21 21:51:00,72.8,67.0,30.07,ESE,113,1.9,6.9,82,0.00,CLR,,0.00,0.0,WeatherDisplay:10.37,2013-02-22 02:51:00,
2013-02-21 21:56:00,72.7,66.9,30.07,ESE,121,3.0,8.0,82,0.00,CLR,CLR,0.00,0.0,WeatherDisplay:10.37,2013-02-22 02:56:00,
2013-02-21 22:01:00,72.6,66.8,30.07,SE,128,2.5,5.8,82,0.00,CLR,,0.00,0.0,WeatherDisplay:10.37,2013-02-22 03:01:00,
2013-02-21 22:06:00,72.6,66.8,30.07,ESE,117,3.0,9.0,82,0.00,CLR,CLR,0.00,0.0,WeatherDisplay:10.37,2013-02-22 03:06:00,
2013-02-21 22:11:00,72.6,67.1,30.07,East,82,1.1,4.6,83,0.00,CLR,,0.00,0.0,WeatherDisplay:10.37,2013-02-22 03:11:00,
2013-02-21 22:16:00,72.6,66.8,30.07,SSE,150,3.6,4.6,82,0.00,CLR,,0.00,0.0,WeatherDisplay:10.37,2013-02-22 03:16:00,
2013-02-21 22:21:00,72.6,67.1,30.07,SW,222,3.1,9.2,83,0.00,CLR,,0.00,0.0,WeatherDisplay:10.37,2013-02-22 03:21:00,
2013-02-21 22:26:00,72.5,66.7,30.07,ESE,115,2.3,4.6,82,0.00,CLR,,0.00,0.0,WeatherDisplay:10.37,2013-02-22 03:26:00,
2013-02-21 22:31:00,72.4,66.6,30.07,ESE,104,4.8,8.1,82,0.00,CLR,,0.00,0.0,WeatherDisplay:10.37,2013-02-22 03:31:00,
2013-02-21 22:36:00,72.4,66.6,30.07,ESE,105,3.0,5.8,82,0.00,CLR,,0.00,0.0,WeatherDisplay:10.37,2013-02-22 03:36:00,
2013-02-21 22:41:00,72.4,66.6,30.07,SE,126,2.0,8.0,82,0.00,CLR,CLR,0.00,0.0,WeatherDisplay:10.37,2013-02-22 03:41:00,
2013-02-21 22:46:00,72.4,66.9,30.07,East,92,3.6,8.1,83,0.00,CLR,,0.00,0.0,WeatherDisplay:10.37,2013-02-22 03:46:00,
2013-02-21 22:51:00,72.3,66.5,30.06,East,94,5.1,9.2,82,0.00,CLR,,0.00,0.0,WeatherDisplay:10.37,2013-02-22 03:51:00,
2013-02-21 22:56:00,72.3,66.5,30.06,ESE,123,3.0,8.0,82,0.00,CLR,CLR,0.00,0.0,WeatherDisplay:10.37,2013-02-22 03:56:00,
2013-02-21 23:01:00,72.4,66.9,30.06,ESE,114,4.1,6.9,83,0.00,CLR,,0.00,0.0,WeatherDisplay:10.37,2013-02-22 04:01:00,
2013-02-21 23:06:00,72.3,66.5,30.06,ESE,117,1.0,9.0,82,0.00,CLR,,0.00,0.0,WeatherDisplay:10.37,2013-02-22 04:06:00,
2013-02-21 23:11:00,72.4,66.6,30.06,ESE,103,2.9,8.1,82,0.00,CLR,,0.00,0.0,WeatherDisplay:10.37,2013-02-22 04:11:00,
2013-02-21 23:16:00,72.3,66.5,30.06,SE,126,3.7,8.1,82,0.00,CLR,,0.00,0.0,WeatherDisplay:10.37,2013-02-22 04:16:00,
2013-02-21 23:21:00,72.3,66.5,30.06,ESE,113,5.0,8.1,82,0.00,CLR,,0.00,0.0,WeatherDisplay:10.37,2013-02-22 04:21:00,
2013-02-21 23:26:00,72.4,66.6,30.06,ESE,106,4.7,9.2,82,0.00,CLR,,0.00,0.0,WeatherDisplay:10.37,2013-02-22 04:26:00,
2013-02-21 23:31:00,72.3,66.5,30.06,East,92,3.8,9.2,82,0.00,CLR,,0.00,0.0,WeatherDisplay:10.37,2013-02-22 04:31:00,
2013-02-21 23:36:00,72.3,66.5,30.06,East,100,3.4,5.0,82,0.00,CLR,,0.00,0.0,WeatherDisplay:10.37,2013-02-22 04:36:00,
2013-02-21 23:41:00,72.2,66.7,30.07,ESE,120,3.1,8.1,83,0.00,CLR,,0.00,0.0,WeatherDisplay:10.37,2013-02-22 04:41:00,
2013-02-21 23:46:00,72.2,66.7,30.07,ESE,117,3.2,4.6,83,0.00,CLR,,0.00,0.0,WeatherDisplay:10.37,2013-02-22 04:46:00,
2013-02-21 23:51:00,72.2,66.4,30.07,SE,126,4.4,8.1,82,0.00,CLR,,0.00,0.0,WeatherDisplay:10.37,2013-02-22 04:51:00,
2013-02-21 23:56:00,72.2,66.4,30.07,ESE,115,3.2,9.2,82,0.00,CLR,,0.00,0.0,WeatherDisplay:10.37,2013-02-22 04:56:00,